EW6625 Weather Reports


Display with metric or nautical units.
time (UTC)temp
F
wind
direction
speed
MPH
gust
MPH
rain 1hr
in
rain 24hr
in
rain mn
in
humidity
%
barometer
mb
20260504110318 42 203 4.0 9.0 0.00 0.00 0.00 70 1005.2
20260504100250 38 220 3.0 6.0 0.00 0.00 0.00 75 1005.0
20260504081243 39 201 4.0 8.0 0.00 0.00 0.00 73 1005.3
20260504080738 39 221 4.0 9.0 0.00 0.00 0.00 73 1005.2
20260504080239 39 206 3.0 9.0 0.00 0.00 0.00 73 1005.3
20260504070231 40 233 4.0 9.0 0.00 0.00 0.00 72 1005.2
20260504060203 43 155 2.0 6.0 0.00 0.00 0.00 64 1004.9
20260504050704 45 219 5.0 10.0 0.00 0.00 0.00 58 1004.7
20260504050204 45 234 5.0 9.0 0.00 0.00 0.00 58 1004.8
20260504045703 45 206 4.0 9.0 0.00 0.00 0.00 58 1004.9
20260504045204 45 228 4.0 9.0 0.00 0.00 0.00 58 1004.9
20260504044702 45 212 4.0 9.0 0.00 0.00 0.00 58 1004.8
20260504044202 45 240 4.0 8.0 0.00 0.00 0.00 58 1004.9
20260504043702 45 255 4.0 8.0 0.00 0.00 0.00 58 1004.8
20260504043202 45 240 4.0 9.0 0.00 0.00 0.00 58 1004.8
20260504042701 45 202 4.0 9.0 0.00 0.00 0.00 58 1004.8
20260504042203 45 243 4.0 8.0 0.00 0.00 0.00 58 1004.7
20260504041701 45 215 4.0 7.0 0.00 0.00 0.00 58 1004.7
20260504041201 45 221 3.0 7.0 0.00 0.00 0.00 58 1004.8
20260504040706 45 193 3.0 7.0 0.00 0.00 0.00 59 1004.7
20260504040202 45 252 4.0 7.0 0.00 0.00 0.00 58 1004.8
20260504035706 45 231 3.0 6.0 0.00 0.00 0.00 58 1004.7
20260504035204 45 243 3.0 6.0 0.00 0.00 0.00 59 1004.7
20260504034705 45 220 4.0 9.0 0.00 0.00 0.00 57 1004.8
20260504034204 45 215 3.0 9.0 0.00 0.00 0.00 58 1004.7
20260504033704 46 236 3.0 10.0 0.00 0.00 0.00 57 1004.7
20260504033508 46 236 3.0 10.0 0.00 0.00 0.00 57 1004.6
20260504032703 46 227 3.0 7.0 0.00 0.00 0.00 57 1004.7
20260504032204 46 219 3.0 7.0 0.00 0.00 0.00 56 1004.7
20260504032013 46 220 4.0 8.0 0.00 0.00 0.00 56 1004.7
20260504031205 46 223 4.0 8.0 0.00 0.00 0.00 55 1004.7
20260504030704 46 152 4.0 7.0 0.00 0.00 0.00 56 1004.6
20260504030203 46 231 4.0 7.0 0.00 0.00 0.00 56 1004.7
20260504025704 46 238 4.0 10.0 0.00 0.00 0.00 56 1004.7
20260504025203 46 248 4.0 10.0 0.00 0.00 0.00 57 1004.6
20260504024705 46 252 4.0 9.0 0.00 0.00 0.00 57 1004.6
20260504024206 45 223 4.0 9.0 0.00 0.00 0.00 57 1004.6
20260504023704 45 226 4.0 8.0 0.00 0.00 0.00 59 1004.7
20260504023203 45 230 3.0 8.0 0.00 0.00 0.00 58 1004.7
20260504022704 45 229 3.0 7.0 0.00 0.00 0.00 59 1004.7
20260504022204 45 240 3.0 7.0 0.00 0.00 0.00 59 1004.7
20260504021704 45 226 3.0 7.0 0.00 0.00 0.00 60 1004.7
20260504021205 44 283 3.0 7.0 0.00 0.00 0.00 60 1004.7
20260504020818 44 190 3.0 7.0 0.00 0.00 0.00 62 1004.8
20260504020750 44 223 3.0 6.0 0.00 0.00 0.00 61 1004.7
20260504020009 44 223 3.0 7.0 0.00 0.00 0.00 63 1004.7
20260504015203 43 226 3.0 7.0 0.00 0.00 0.00 63 1004.6
20260504014702 43 226 2.0 7.0 0.00 0.00 0.00 64 1004.6
20260504014203 43 190 2.0 4.0 0.00 0.00 0.00 66 1004.6
20260504013703 43 238 2.0 5.0 0.00 0.00 0.00 66 1004.4
20260504013322 44 258 2.0 7.0 0.00 0.00 0.00 65 1004.4
20260504013256 43 206 2.0 7.0 0.00 0.00 0.00 65 1004.3
20260504012311 44 259 2.0 3.0 0.00 0.00 0.00 65 1004.4
20260504012249 44 283 2.0 5.0 0.00 0.00 0.00 66 1004.9
20260504011201 44 236 2.0 3.0 0.00 0.00 0.00 63 1004.4
20260504010701 45 253 2.0 4.0 0.00 0.00 0.00 64 1004.4
20260504010203 45 238 2.0 4.0 0.00 0.00 0.00 61 1004.3
20260504005701 46 226 2.0 4.0 0.00 0.00 0.00 60 1004.2
20260504005202 46 269 2.0 3.0 0.00 0.00 0.00 59 1004.3
20260504004702 47 234 2.0 4.0 0.00 0.00 0.00 58 1004.2
20260504004203 47 253 1.0 4.0 0.00 0.00 0.00 57 1004.3
20260504003700 48 258 1.0 2.0 0.00 0.00 0.00 56 1004.2
20260504003508 48 222 1.0 4.0 0.00 0.00 0.00 54 1004.1
20260504002701 49 223 2.0 4.0 0.00 0.00 0.00 54 1004.1
20260504002201 49 178 2.0 4.0 0.00 0.00 0.00 52 1003.9
20260504001700 49 202 2.0 4.0 0.00 0.00 0.00 52 1004.0
20260504001200 50 223 2.0 3.0 0.00 0.00 0.00 52 1003.9
20260504000701 50 202 3.0 7.0 0.00 0.00 0.00 51 1003.9
20260504000609 50 245 4.0 10.0 0.00 0.00 0.00 50 1003.8
20260504000602 50 223 4.0 10.0 0.00 0.00 0.00 51 1003.9
20260503235456 50 238 4.0 8.0 0.00 0.00 0.00 50 1003.9
20260503234700 50 227 4.0 8.0 0.00 0.00 0.00 50 1003.8
20260503234202 50 231 4.0 9.0 0.00 0.00 0.00 49 1003.7
20260503233701 51 252 4.0 9.0 0.00 0.00 0.00 49 1003.8
20260503233501 51 277 4.0 10.0 0.00 0.00 0.00 49 1003.8
20260503232701 51 264 4.0 10.0 0.00 0.00 0.00 49 1003.7
20260503232203 51 243 3.0 10.0 0.00 0.00 0.00 49 1003.7
20260503231701 51 324 4.0 10.0 0.00 0.00 0.00 49 1003.7
20260503231202 51 269 3.0 10.0 0.00 0.00 0.00 48 1003.7
20260503230701 51 228 2.0 8.0 0.00 0.00 0.00 49 1003.7
20260503230414 52 274 5.0 12.0 0.00 0.00 0.00 48 1003.7
20260503230336 51 258 3.0 9.0 0.00 0.00 0.00 48 1003.7
20260503230100 51 269 5.0 9.0 0.00 0.00 0.00 49 1003.7
20260503225008 52 307 5.0 12.0 0.00 0.00 0.00 47 1003.7
20260503224201 52 260 4.0 10.0 0.00 0.00 0.00 47 1003.7
20260503223700 52 226 4.0 10.0 0.00 0.00 0.00 48 1003.6
20260503223201 52 274 4.0 10.0 0.00 0.00 0.00 47 1003.7
20260503222702 52 257 5.0 11.0 0.00 0.00 0.00 48 1003.7
20260503222202 52 276 6.0 14.0 0.00 0.00 0.00 48 1003.8
20260503221701 52 238 7.0 14.0 0.00 0.00 0.00 47 1003.7
20260503221159 52 308 6.0 14.0 0.00 0.00 0.00 46 1003.8
20260503220653 52 276 6.0 15.0 0.00 0.00 0.00 46 1003.7
20260503220147 52 231 6.0 15.0 0.00 0.00 0.00 46 1003.7
20260503215641 52 257 7.0 18.0 0.00 0.00 0.00 48 1003.7
20260503215135 52 243 8.0 19.0 0.00 0.00 0.00 46 1003.8
20260503214632 52 305 9.0 19.0 0.00 0.00 0.00 45 1003.8
20260503214433 53 281 9.0 23.0 0.00 0.00 0.00 45 1003.7
20260503213632 53 329 8.0 23.0 0.00 0.00 0.00 45 1003.6
20260503213441 53 6 7.0 16.0 0.00 0.00 0.00 46 1003.4
20260503212634 52 276 7.0 21.0 0.00 0.00 0.00 45 1003.5
20260503212437 52 302 8.0 21.0 0.00 0.00 0.00 45 1003.4
20260503211632 52 218 10.0 19.0 0.00 0.00 0.00 44 1003.5
20260503211133 52 238 10.0 23.0 0.00 0.00 0.00 43 1003.4
20260503210632 53 284 10.0 23.0 0.00 0.00 0.00 43 1003.2
20260503210132 53 285 9.0 18.0 0.00 0.00 0.00 41 1003.4
20260503205632 53 250 8.0 17.0 0.00 0.00 0.00 42 1003.4
20260503205133 53 89 6.0 14.0 0.00 0.00 0.00 42 1003.3
20260503204632 53 302 6.0 15.0 0.00 0.00 0.00 40 1003.2
20260503204132 53 248 8.0 18.0 0.00 0.00 0.00 42 1003.1
20260503203632 53 335 9.0 18.0 0.00 0.00 0.00 39 1003.2
20260503203134 53 265 9.0 18.0 0.00 0.00 0.00 41 1003.2
20260503202632 53 252 8.0 15.0 0.00 0.00 0.00 41 1003.2
20260503202131 53 266 6.0 15.0 0.00 0.00 0.00 40 1003.2
20260503201630 52 257 6.0 13.0 0.00 0.00 0.00 43 1003.2
20260503201129 52 253 9.0 23.0 0.00 0.00 0.00 40 1003.2
20260503200632 53 269 10.0 30.0 0.00 0.00 0.00 38 1003.3
20260503200129 53 257 10.0 30.0 0.00 0.00 0.00 39 1003.3
20260503195629 54 245 8.0 20.0 0.00 0.00 0.00 38 1003.3
20260503195443 54 269 5.0 16.0 0.00 0.00 0.00 41 1003.5
20260503194629 53 56 5.0 12.0 0.00 0.00 0.00 41 1003.4
20260503194129 53 286 7.0 19.0 0.00 0.00 0.00 40 1003.5
20260503193629 52 274 9.0 23.0 0.00 0.00 0.00 41 1003.6
20260503193130 52 290 9.0 23.0 0.00 0.00 0.00 40 1003.6
20260503192932 52 296 8.0 19.0 0.00 0.00 0.00 39 1003.7
20260503192130 52 276 9.0 20.0 0.00 0.00 0.00 42 1003.8
20260503191936 51 314 9.0 22.0 0.00 0.00 0.00 41 1003.9
20260503191130 51 284 8.0 22.0 0.00 0.00 0.00 41 1004.0
20260503190937 51 278 7.0 18.0 0.00 0.00 0.00 43 1004.1
20260503190130 51 272 8.0 17.0 0.00 0.00 0.00 41 1004.2
20260503185631 51 15 8.0 17.0 0.00 0.00 0.00 41 1004.3
20260503185131 51 308 9.0 21.0 0.00 0.00 0.00 43 1004.3
20260503184630 50 295 10.0 21.0 0.00 0.00 0.00 41 1004.4
20260503184129 50 315 9.0 19.0 0.00 0.00 0.00 42 1004.3
20260503183629 50 315 8.0 19.0 0.00 0.00 0.00 42 1004.6
20260503183129 50 290 8.0 17.0 0.00 0.00 0.00 41 1004.6
20260503182630 50 34 7.0 18.0 0.00 0.00 0.00 42 1004.6
20260503182129 50 298 7.0 18.0 0.00 0.00 0.00 45 1004.4
20260503181929 49 264 9.0 21.0 0.00 0.00 0.00 45 1004.6
20260503181129 49 278 10.0 21.0 0.00 0.00 0.00 44 1004.6
20260503180629 49 205 7.0 20.0 0.00 0.00 0.00 43 1004.6
20260503180436 49 227 6.0 14.0 0.00 0.00 0.00 47 1004.8
20260503175631 49 341 9.0 20.0 0.00 0.00 0.00 43 1004.9
20260503175130 49 291 11.0 21.0 0.00 0.00 0.00 41 1004.8
20260503174629 50 257 11.0 24.0 0.00 0.00 0.00 44 1004.9
20260503174129 49 271 10.0 24.0 0.00 0.00 0.00 45 1004.8
20260503173629 48 274 8.0 17.0 0.00 0.00 0.00 43 1004.9
20260503173129 48 286 8.0 17.0 0.00 0.00 0.00 44 1004.9
20260503172628 48 37 8.0 19.0 0.00 0.00 0.00 46 1004.9
20260503172130 48 308 8.0 19.0 0.00 0.00 0.00 43 1004.9
20260503171631 49 23 9.0 19.0 0.00 0.00 0.00 42 1004.9
20260503171129 49 312 8.0 19.0 0.00 0.00 0.00 44 1004.9
20260503170631 48 271 9.0 23.0 0.00 0.00 0.00 46 1004.9
20260503170252 47 252 6.0 17.0 0.00 0.00 0.00 44 1004.9
20260503170221 48 293 8.0 23.0 0.00 0.00 0.00 44 1004.8
20260503150633 42 295 8.0 18.0 0.00 0.00 0.00 54 1005.4
20260503150133 42 288 8.0 17.0 0.00 0.00 0.00 54 1005.3
20260503140131 41 89 7.0 16.0 0.00 0.00 0.00 60 1005.5
20260503131129 39 250 5.0 12.0 0.00 0.00 0.00 71 1005.6
20260503130933 39 262 6.0 20.0 0.00 0.00 0.00 73 1005.6
20260503130130 39 335 7.0 20.0 0.00 0.00 0.00 72 1005.6